User: anonymous   Login
Location: Orange Harbor Mobile Home Park
(26.6923°N, 81.7937°W)
Time: 17:33:52
(UTC+00:00)
Language:

Cosmos 2322 Rocket - Orbit

View from above orbital plane
View from above orbital plane
View from above satellite
View from above satellite

Ground track
Ground track

The orbit data is extracted from the following two-line orbital elements,

1 23705U 95058B   20334.49697879  .00000132  00000-0  92412-4 0  9993
2 23705  71.0223 262.6655 0012656 185.6477 174.4505 14.15138299295627
Epoch (UTC): 29 November 2020 11:55:38
Eccentricity: 0.0012656
inclination: 71.0223°
perigee height: 833 km
apogee height: 851 km
right ascension of ascending node: 262.6655°
argument of perigee: 185.6477°
revolutions per day: 14.15138299
mean anomaly at epoch: 174.4505°
orbit number at epoch: 29562

The dashed part of the orbit path shows where the satellite is in the earth's shadow,  

DLR